Location: Meanaryar
(48.4161°N, 4.7315°W)
Time: 16:58:57
(UTC+00:00)

USA 238 DEB - Pass Details

Date: 18 September 2020
Orbit: 1004 x 1208 km, 63.4° (Epoch: 28 October)

Event Time Altitude Azimuth Distance (km) Brightness Sun altitude
Rises 19:30:18 0° 317° (NW) 3,918 7.7 -11.6°
Reaches altitude 10° 19:32:59 10° 322° (NW) 2,987 6.9 -12.0°
Maximum altitude 19:40:03 60° 41° (NE) 1,309 4.0 -13.2°
Enters shadow 19:45:40 18° 117° (ESE) 2,525 5.0 -14.0°
